TimeMDT,TemperatureF,Dew PointF,Humidity,Sea Level PressureIn,VisibilityMPH,Wind Direction,Wind SpeedMPH,Gust SpeedMPH,PrecipitationIn,Events,Conditions,WindDirDegrees,DateUTC
12:53 AM,46.9,27.0,46,29.93,10.0,Calm,Calm,-,N/A,,Clear,0,2013-05-06 06:53:00
1:53 AM,45.0,28.0,52,29.94,10.0,Calm,Calm,-,N/A,,Clear,0,2013-05-06 07:53:00
2:53 AM,39.0,28.0,65,29.96,10.0,Calm,Calm,-,N/A,,Clear,0,2013-05-06 08:53:00
3:53 AM,37.9,26.1,62,29.94,10.0,SSE,4.6,-,N/A,,Clear,160,2013-05-06 09:53:00
4:53 AM,39.0,28.0,65,29.94,10.0,SSW,6.9,-,N/A,,Clear,200,2013-05-06 10:53:00
5:53 AM,37.0,28.0,70,29.96,10.0,SSW,6.9,-,N/A,,Clear,200,2013-05-06 11:53:00
6:53 AM,37.0,28.9,73,29.97,10.0,SSW,4.6,-,N/A,,Clear,210,2013-05-06 12:53:00
7:53 AM,39.9,30.9,70,29.97,10.0,SW,8.1,-,N/A,,Clear,220,2013-05-06 13:53:00
8:53 AM,46.0,33.1,61,29.97,10.0,SW,6.9,-,N/A,,Clear,230,2013-05-06 14:53:00
9:53 AM,51.1,32.0,48,29.96,10.0,Calm,Calm,-,N/A,,Clear,0,2013-05-06 15:53:00
10:53 AM,55.9,30.9,39,29.94,10.0,Calm,Calm,-,N/A,,Clear,0,2013-05-06 16:53:00
11:53 AM,57.9,30.9,36,29.92,10.0,Calm,Calm,-,N/A,,Clear,0,2013-05-06 17:53:00
12:53 PM,64.0,30.9,29,29.87,10.0,Variable,4.6,-,N/A,,Clear,0,2013-05-06 18:53:00
1:53 PM,64.9,30.0,27,29.85,9.0,Variable,3.5,-,N/A,,Partly Cloudy,0,2013-05-06 19:53:00
2:53 PM,68.0,27.0,21,29.83,10.0,North,4.6,-,N/A,,Clear,350,2013-05-06 20:53:00
3:53 PM,71.1,28.0,20,29.81,9.0,NW,9.2,-,N/A,,Clear,320,2013-05-06 21:53:00
4:53 PM,71.1,26.1,19,29.78,10.0,NNW,10.4,16.1,N/A,,Clear,340,2013-05-06 22:53:00
5:53 PM,68.0,26.1,21,29.78,7.0,Calm,Calm,-,N/A,,Partly Cloudy,0,2013-05-06 23:53:00
6:53 PM,69.1,26.1,20,29.78,10.0,SE,15.0,-,N/A,,Mostly Cloudy,140,2013-05-07 00:53:00
7:03 PM,68.0,26.6,21,29.87,10.0,SE,15.0,21.9,N/A,Thunderstorm,Mostly Cloudy,140,2013-05-07 01:03:00
7:18 PM,66.2,24.8,21,29.88,10.0,SE,24.2,-,N/A,,Overcast,140,2013-05-07 01:18:00
7:53 PM,64.9,25.0,22,29.79,10.0,SSE,17.3,-,N/A,,Overcast,150,2013-05-07 01:53:00
8:53 PM,64.0,24.1,22,29.78,10.0,NE,15.0,23.0,N/A,,Scattered Clouds,40,2013-05-07 02:53:00
9:53 PM,57.9,27.0,31,29.82,10.0,ESE,8.1,-,N/A,,Overcast,110,2013-05-07 03:53:00
10:53 PM,57.0,27.0,32,29.81,10.0,SSE,4.6,-,N/A,,Clear,160,2013-05-07 04:53:00
11:53 PM,52.0,28.0,40,29.82,10.0,SSW,8.1,-,N/A,,Partly Cloudy,200,2013-05-07 05:53:00